TimeEDT,TemperatureF,Dew PointF,Humidity,Sea Level PressureIn,VisibilityMPH,Wind Direction,Wind SpeedMPH,Gust SpeedMPH,PrecipitationIn,Events,Conditions,WindDirDegrees,DateUTC
12:54 AM,54.0,51.1,90,30.05,10.0,Calm,Calm,-,N/A,,Clear,0,2013-07-25 04:54:00
1:54 AM,53.1,50.0,89,30.05,10.0,Calm,Calm,-,N/A,,Clear,0,2013-07-25 05:54:00
2:54 AM,52.0,50.0,93,30.05,10.0,Calm,Calm,-,N/A,,Clear,0,2013-07-25 06:54:00
3:54 AM,52.0,48.9,89,30.05,10.0,Calm,Calm,-,N/A,,Clear,0,2013-07-25 07:54:00
4:54 AM,50.0,48.0,93,30.06,10.0,ESE,3.5,-,N/A,,Clear,110,2013-07-25 08:54:00
5:54 AM,50.0,48.0,93,30.07,10.0,Calm,Calm,-,N/A,,Partly Cloudy,0,2013-07-25 09:54:00
6:54 AM,52.0,48.9,89,30.08,10.0,Calm,Calm,-,N/A,,Partly Cloudy,0,2013-07-25 10:54:00
7:54 AM,55.9,51.1,84,30.10,10.0,East,3.5,-,N/A,,Scattered Clouds,100,2013-07-25 11:54:00
8:54 AM,61.0,54.0,78,30.10,10.0,ENE,3.5,-,N/A,,Scattered Clouds,70,2013-07-25 12:54:00
9:54 AM,66.0,52.0,60,30.11,10.0,Variable,4.6,-,N/A,,Mostly Cloudy,0,2013-07-25 13:54:00
10:54 AM,68.0,51.1,55,30.11,10.0,NNE,8.1,-,N/A,,Mostly Cloudy,20,2013-07-25 14:54:00
11:54 AM,70.0,51.1,51,30.11,10.0,Variable,6.9,-,N/A,,Mostly Cloudy,0,2013-07-25 15:54:00
12:54 PM,71.1,51.1,49,30.10,10.0,NE,4.6,-,N/A,,Overcast,50,2013-07-25 16:54:00
1:54 PM,73.9,50.0,43,30.09,10.0,NNW,5.8,-,N/A,,Mostly Cloudy,330,2013-07-25 17:54:00
2:54 PM,73.9,50.0,43,30.08,10.0,NNE,4.6,-,N/A,,Scattered Clouds,30,2013-07-25 18:54:00
3:54 PM,75.0,50.0,41,30.06,10.0,Variable,3.5,-,N/A,,Scattered Clouds,0,2013-07-25 19:54:00
4:54 PM,77.0,52.0,42,30.06,10.0,Variable,3.5,-,N/A,,Scattered Clouds,0,2013-07-25 20:54:00
5:54 PM,75.9,52.0,43,30.06,10.0,NNW,6.9,-,N/A,,Scattered Clouds,330,2013-07-25 21:54:00
6:54 PM,73.9,52.0,46,30.06,10.0,NW,10.4,-,N/A,,Scattered Clouds,320,2013-07-25 22:54:00
7:54 PM,71.1,53.1,53,30.07,10.0,NW,6.9,-,N/A,,Scattered Clouds,320,2013-07-25 23:54:00
8:54 PM,66.9,52.0,59,30.07,10.0,NW,4.6,-,N/A,,Partly Cloudy,320,2013-07-26 00:54:00
9:54 PM,64.0,52.0,65,30.08,10.0,NNW,4.6,-,N/A,,Clear,340,2013-07-26 01:54:00
10:54 PM,62.1,52.0,70,30.08,10.0,NW,3.5,-,N/A,,Clear,320,2013-07-26 02:54:00
11:54 PM,60.1,52.0,75,30.08,10.0,Calm,Calm,-,N/A,,Clear,0,2013-07-26 03:54:00